Hourly Weather Godzisz

Today, 18 May, Tuesday

Time Temperature Precipitation Wind Pressure Humidity
00:00 +13°C° 0 mm 1 mps 741 mmHg 76%
01:00 +13°C° 0 mm 1 mps 741 mmHg 76%
02:00 +13°C° 0 mm 1 mps 741 mmHg 78%
03:00 +13°C° 0 mm 2 mps 741 mmHg 80%
04:00 +13°C° 0 mm 2 mps 741 mmHg 82%
05:00 +12°C° 0 mm 3 mps 741 mmHg 83%
06:00 +12°C° 0 mm 4 mps 741 mmHg 84%
07:00 +13°C° 0 mm 5 mps 742 mmHg 86%
08:00 +13°C° 0 mm 5 mps 742 mmHg 84%
09:00 +13°C° 0 mm 6 mps 742 mmHg 83%
10:00 +13°C° 0 mm 6 mps 742 mmHg 81%
11:00 +14°C° 0 mm 6 mps 742 mmHg 78%
12:00 +14°C° 0 mm 6 mps 742 mmHg 75%
13:00 +15°C° 0 mm 7 mps 742 mmHg 72%
14:00 +15°C° 0 mm 7 mps 742 mmHg 72%
15:00 +15°C° 0 mm 6 mps 742 mmHg 72%
16:00 +15°C° 0 mm 6 mps 742 mmHg 72%
17:00 +14°C° 0 mm 6 mps 743 mmHg 75%
18:00 +13°C° 0 mm 5 mps 743 mmHg 77%
19:00 +13°C° 0 mm 5 mps 743 mmHg 79%
20:00 +12°C° 0 mm 5 mps 744 mmHg 82%
21:00 +10°C° 0 mm 5 mps 744 mmHg 85%
22:00 +10°C° 0 mm 5 mps 744 mmHg 88%
23:00 +9°C° 0 mm 5 mps 744 mmHg 89%

Tomorrow, 19 May, Wednesday

Time Temperature Precipitation Wind Pressure Humidity
00:00 +10°C° 0 mm 4 mps 744 mmHg 91%
01:00 +8°C° 0 mm 4 mps 744 mmHg 93%
02:00 +8°C° 0 mm 4 mps 745 mmHg 93%
03:00 +8°C° 0 mm 4 mps 745 mmHg 94%
04:00 +7°C° 0 mm 4 mps 745 mmHg 95%
05:00 +8°C° 0 mm 4 mps 746 mmHg 91%
06:00 +10°C° 0 mm 4 mps 746 mmHg 87%
07:00 +12°C° 0 mm 4 mps 746 mmHg 83%
08:00 +12°C° 0 mm 5 mps 746 mmHg 80%
09:00 +13°C° 0 mm 5 mps 746 mmHg 76%
10:00 +13°C° 0 mm 5 mps 747 mmHg 73%
11:00 +14°C° 0 mm 5 mps 747 mmHg 71%
12:00 +14°C° 0 mm 5 mps 747 mmHg 68%
13:00 +15°C° 0 mm 4 mps 747 mmHg 66%
14:00 +15°C° 0 mm 4 mps 747 mmHg 64%
15:00 +15°C° 0 mm 4 mps 747 mmHg 62%
16:00 +17°C° 0 mm 4 mps 747 mmHg 60%
17:00 +14°C° 0.1 mm 3 mps 747 mmHg 67%
18:00 +13°C° 0.1 mm 3 mps 747 mmHg 74%
19:00 +13°C° 0.1 mm 2 mps 747 mmHg 80%
20:00 +12°C° 0 mm 2 mps 747 mmHg 84%
21:00 +10°C° 0 mm 2 mps 747 mmHg 88%
22:00 +9°C° 0 mm 2 mps 748 mmHg 91%
23:00 +9°C° 0 mm 2 mps 748 mmHg 92%

Day after tomorrow, 20 May, Thursday

Time Temperature Precipitation Wind Pressure Humidity
00:00 +8°C° 0 mm 3 mps 748 mmHg 93%
01:00 +8°C° 0 mm 3 mps 748 mmHg 94%
02:00 +7°C° 0 mm 3 mps 748 mmHg 91%
03:00 +7°C° 0 mm 3 mps 748 mmHg 88%
04:00 +5°C° 0 mm 3 mps 749 mmHg 86%
05:00 +8°C° 0 mm 3 mps 749 mmHg 81%
06:00 +8°C° 0 mm 4 mps 749 mmHg 76%
07:00 +10°C° 0 mm 4 mps 749 mmHg 71%
08:00 +10°C° 0 mm 5 mps 749 mmHg 67%
09:00 +12°C° 0 mm 5 mps 749 mmHg 62%
10:00 +14°C° 0 mm 5 mps 749 mmHg 57%
11:00 +14°C° 0 mm 5 mps 749 mmHg 55%
12:00 +15°C° 0 mm 5 mps 749 mmHg 53%
13:00 +16°C° 0 mm 5 mps 749 mmHg 50%
14:00 +16°C° 0 mm 5 mps 749 mmHg 54%
15:00 +15°C° 0 mm 5 mps 749 mmHg 57%
16:00 +15°C° 0 mm 4 mps 749 mmHg 60%
17:00 +14°C° 0 mm 4 mps 749 mmHg 64%
18:00 +13°C° 0 mm 4 mps 749 mmHg 67%
19:00 +12°C° 0 mm 4 mps 749 mmHg 70%
20:00 +11°C° 0 mm 4 mps 750 mmHg 76%
21:00 +10°C° 0 mm 4 mps 750 mmHg 81%
22:00 +8°C° 0 mm 4 mps 751 mmHg 87%
23:00 +8°C° 0 mm 3 mps 751 mmHg 88%

21 May, Friday

Time Temperature Precipitation Wind Pressure Humidity
00:00 +8°C° 0 mm 3 mps 751 mmHg 90%
01:00 +7°C° 0 mm 3 mps 752 mmHg 92%
02:00 +7°C° 0 mm 3 mps 752 mmHg 93%
03:00 +5°C° 0 mm 3 mps 752 mmHg 94%
04:00 +4°C° 0 mm 3 mps 752 mmHg 95%
05:00 +7°C° 0 mm 3 mps 752 mmHg 86%
06:00 +7°C° 0 mm 4 mps 753 mmHg 78%
07:00 +10°C° 0 mm 4 mps 753 mmHg 69%
08:00 +10°C° 0 mm 5 mps 753 mmHg 63%
09:00 +12°C° 0 mm 5 mps 752 mmHg 58%
10:00 +13°C° 0 mm 5 mps 752 mmHg 52%
11:00 +14°C° 0 mm 5 mps 752 mmHg 51%
12:00 +14°C° 0 mm 5 mps 752 mmHg 50%
13:00 +14°C° 0 mm 5 mps 752 mmHg 49%
14:00 +14°C° 0 mm 4 mps 751 mmHg 52%
15:00 +14°C° 0 mm 4 mps 751 mmHg 55%
16:00 +14°C° 0 mm 3 mps 751 mmHg 58%
17:00 +14°C° 0 mm 2 mps 751 mmHg 62%
18:00 +13°C° 0 mm 2 mps 751 mmHg 67%
19:00 +12°C° 0 mm 1 mps 751 mmHg 72%
20:00 +11°C° 0 mm 1 mps 750 mmHg 74%
21:00 +9°C° 0 mm 2 mps 750 mmHg 76%
22:00 +9°C° 0 mm 2 mps 750 mmHg 78%
23:00 +9°C° 0 mm 2 mps 750 mmHg 79%

22 May, Saturday

Time Temperature Precipitation Wind Pressure Humidity
00:00 +9°C° 0 mm 3 mps 750 mmHg 79%
01:00 +9°C° 0 mm 3 mps 749 mmHg 79%
02:00 +8°C° 0 mm 3 mps 749 mmHg 80%
03:00 +8°C° 0 mm 3 mps 749 mmHg 81%
04:00 +8°C° 0 mm 3 mps 749 mmHg 82%
05:00 +10°C° 0 mm 3 mps 748 mmHg 77%
06:00 +11°C° 0 mm 4 mps 748 mmHg 72%
07:00 +13°C° 0 mm 4 mps 748 mmHg 67%
08:00 +15°C° 0 mm 5 mps 748 mmHg 63%
09:00 +16°C° 0 mm 5 mps 748 mmHg 58%
10:00 +19°C° 0 mm 6 mps 748 mmHg 54%
11:00 +19°C° 0 mm 6 mps 747 mmHg 52%
12:00 +20°C° 0 mm 6 mps 747 mmHg 50%
13:00 +20°C° 0 mm 6 mps 747 mmHg 48%
14:00 +20°C° 0 mm 5 mps 747 mmHg 51%
15:00 +20°C° 0 mm 4 mps 747 mmHg 54%
16:00 +20°C° 0 mm 4 mps 746 mmHg 57%
17:00 +18°C° 0.4 mm 4 mps 746 mmHg 69%
18:00 +14°C° 0.4 mm 4 mps 747 mmHg 80%
19:00 +12°C° 0.4 mm 4 mps 747 mmHg 92%
20:00 +12°C° 0.2 mm 3 mps 747 mmHg 93%
21:00 +12°C° 0.2 mm 2 mps 747 mmHg 94%
22:00 +12°C° 0.2 mm 1 mps 747 mmHg 95%
23:00 +12°C° 0.6 mm 1 mps 747 mmHg 95%

23 May, Sunday

Time Temperature Precipitation Wind Pressure Humidity
00:00 +12°C° 0.6 mm 1 mps 747 mmHg 96%
01:00 +12°C° 0.6 mm 1 mps 747 mmHg 96%
02:00 +10°C° 2.2 mm 2 mps 747 mmHg 96%
03:00 +10°C° 2.2 mm 3 mps 747 mmHg 95%
04:00 +10°C° 2.2 mm 4 mps 747 mmHg 95%
05:00 +10°C° 0.4 mm 3 mps 747 mmHg 91%
06:00 +11°C° 0.4 mm 3 mps 747 mmHg 87%
07:00 +12°C° 0.4 mm 2 mps 748 mmHg 84%
08:00 +13°C° 0 mm 3 mps 748 mmHg 74%
09:00 +14°C° 0 mm 3 mps 748 mmHg 64%
10:00 +17°C° 0 mm 3 mps 748 mmHg 55%
11:00 +17°C° 0 mm 3 mps 748 mmHg 52%
12:00 +18°C° 0 mm 3 mps 748 mmHg 49%
13:00 +19°C° 0 mm 3 mps 748 mmHg 46%
14:00 +18°C° 0 mm 2 mps 748 mmHg 51%
15:00 +18°C° 0 mm 2 mps 748 mmHg 55%
16:00 +19°C° 0 mm 1 mps 748 mmHg 59%
17:00 +18°C° 0 mm 1 mps 749 mmHg 63%
18:00 +16°C° 0 mm 1 mps 749 mmHg 66%
19:00 +15°C° 0 mm 1 mps 749 mmHg 70%
20:00 +14°C° 0 mm 1 mps 749 mmHg 72%
21:00 +13°C° 0 mm 1 mps 750 mmHg 74%
22:00 +12°C° 0 mm 1 mps 750 mmHg 76%
23:00 +11°C° 0 mm 1 mps 750 mmHg 78%
Show more